map of MAN home
MAN - Airport
Location
City:  Manchester, England, United Kingdom
Name:Ringway International Airport
ICAO:EGCC
IATA:MAN

Details
Type:Airport (Aerodrome, Airfield)
Use:Public/Civil, International (customs port of entry)
Latitude:5321'14"N (53.353889)
Longitude:216'30"W (-2.274999)
Elevation:257 ft (78 m)
Variation:1.33W (WMM2015 magnetic declination)
0.16 annual change
Runways:2
Longest:10007 × 148 ft (3050 × 45 m), paved

Time
Time Zone:UTC+0 (DST+1)
Local Time:

Weather
METAR:EGCC 181420Z 27004KT 210V320 CAVOK 13/03 Q1028 NOSIG
TAF:EGCC 181100Z 1812/1918 VRB03KT CAVOK
TEMPO 1821/1908 5000 BR MIFG PROB30 1900/1908 1200 BCFG
TEMPO 1910/1916 24010KT
BECMG 1916/1918 BKN040

Related Locations
Nearby:
Farthest:NZBA: 11826 mi / 19033 km
Balclutha, OTA, NZ

Find:

   beyond  
but within

Other Information
Maps:
NOTAMs:
Links:
Sources:

  
  • flag of United Kingdom
  • flag of England
  

Airport Diagram

Airport diagram for MAN

Airport diagram PDF

Sectional Chart

Flight Planning
at skyvector.com

Satellite Image

Google Maps Satellite view

 

Copyright © 2004-2018 Karl L. Swartz. All rights reserved.
The Great Circle Mapper name and logo are trademarks of the Great Circle Mapper.
All other trademarks mentioned herein belong to their respective owners.
Please see credits for attibutions and further copyright information.

  Follow gcmap on Facebook Follow gcmap on Twitter Follow gcmap on Google+ GCmap on LinkedIn

hCard Microformat

Geo Microformat